Location: Newark
(9.4667°S, 159.8167°E)
Time: 23:49:55
(UTC+00:00)

Vanguard 1 - Pass Details

Date: 19 November 2019
Orbit: 651 x 3832 km, 34.3° (Epoch: 11 December)

Event Time Altitude Azimuth Distance (km) Brightness Sun altitude
Rises 13:10:43 0° 248° (WSW) 5,699 14.1 -61.0°
Reaches altitude 10° 13:14:45 10° 237° (WSW) 5,128 13.8 -61.0°
Maximum altitude 13:28:46 31° 179° (S) 4,738 13.6 -60.5°
Drops below altitude 10° 13:48:01 10° 123° (ESE) 6,943 14.6 -59.3°
Sets 13:54:53 0° 113° (ESE) 7,917 15.0 -58.7°
